Tracking 27420 objects as of 28-May-2023
HD Live streaming from Space Station
objects crossing your sky now

STARLINK-6122

Track STARLINK-6122 now!
10-day predictions
STARLINK-6122 is classified as:


NORAD ID: 56128
Int'l Code: 2023-046AN
Perigee: 470.6 km
Apogee: 472.7 km
Inclination: 43.0 °
Period: 93.9 minutes
Semi major axis: 6842 km
RCS: Unknown
Launch date: March 29, 2023
Source: United States (US)
Launch site: AIR FORCE EASTERN TEST RANGE (AFETR)
Your satellite tracking list
Your tracking list is empty




NASA's NSSDC Master Catalog

Two Line Element Set (TLE):
1 56128U 23046AN  23148.25001157 -.00854999  00000-0 -27777-1 0  9993
2 56128  42.9993 271.7154 0001491 263.5244  16.8383 15.33790608  9828
Source of the keplerian elements: AFSPC